Location: Clarion
(42.7316°N, 93.7330°W)
Time: 09:26:52
(UTC+00:00)

Cosmos 1697 Rocket - Pass Details

Date: 22 April 2026
Orbit: 832 x 842 km, 71.0° (Epoch: 17 May)

Event Time Altitude Azimuth Distance (km) Brightness Sun altitude
Rises 06:45:27 0° 329° (NNW) 3,397 6.5 -34.6°
Reaches altitude 10° 06:48:00 10° 323° (NW) 2,457 5.5 -34.5°
Enters shadow 06:50:17 24° 311° (NW) 1,685 4.4 -34.4°
